Find Starlink 30196

NORAD ID: 57448 Int'l Des: 2023-105 Owner: SPXS Country: US Constellation: starlink operational
LEOCIRCULAR

リアルタイム位置

3D地球を読み込み中...

Starlink 30196について

説明を読み込み中...

次回通過

Passes for default location (London). Set your location on the main map for personalized predictions.

高度履歴

Loading altitude history...

軌道要素

1 57448U 23105U 26125.91668981 .00078722 00000-0 28406-2 0 9991
2 57448 43.0010 299.8912 0001612 278.9722 165.4600 15.27570427 5866
Epoch: May 5, 2026 • Age: 6 hours

現在のステータス

高度 485.8 km
速度 7.63 km/s
衛星直下点 37.41°N, 66.3°E
打ち上げ日 Jul 24, 2023
運用期間 2.7 years
タイプ internet

技術仕様

分類 Payload
質量 730.00 kg
乾燥質量 700.00 kg
総質量 730.00 kg
長さ 0.30 m
直径 4.10 m
スパン 29.00 m
形状 Box + pan
製造者 SPXS
バスタイプ Starlink V2M
フェーズステータス In Orbit
所有者/国 SPXS/US

Most Searched